ESSA 7 (TOS-E)

Satellite information

Favourite Embed

Satellite Type and Status

PAYLOADIN ORBIT

Key statistics

Satellite ESSA 7 (TOS-E) at a glance.

Uptime

20946

Days in orbit

Revolutions

≈ 12.5

Per day

Orbit

SSO

Sun Synchronous Orbit

Inclination

101.5

Latest

Satellite identification and parameters

Extended collection of information and parameters for ESSA 7 (TOS-E).

Object identification

Identified? True

Debris? False

Object name: ESSA 7 (TOS-E)

International designator: 1968-069A

Object number (NORAD): 3345

Object ID (CCSDS): 3345

Country: UNITED STATES OF AMERICA (US)

Current information (Y/N): Y

RCS size: MEDIUM

Orbital parameters

Period: 114.923 minutes

Inclination: 101.5346 deg

SMA: 7830.078 km

Apoapsis: 1472.913 km

Periapsis: 1430.972 km

RAAN: 321.1363 deg

Eccentricy: 0.00267818

Argument of periapsis: 155.0697 deg

Mean anomaly: 269.6136 deg

Mean motion: 12.53007489 rev/day

Mean motion (dot): -0.00000041 rev/day2

B* drag term: 0.00001648564 1/REarth

Two-line elements (TLE)

Creation date: Dec. 21, 2025, 3:42 a.m.

Reference frame: TEME

Reference center: EARTH

Epoch: Dec. 20, 2025, 9:45 p.m. UTC

TLE line 0: 0 ESSA 7 (TOS-E)

TLE line 1: 1 03345U 68069A 25354.90666806 -.00000041 00000-0 16486-4 0 9999

TLE line 2: 2 03345 101.5346 321.1363 0026782 155.0697 269.6136 12.53007489622657

Live tracking on map

Real-time ground track for satellite ESSA 7 (TOS-E).

In-orbit conjunctions

A list of the most updated potential collisions computed for object ESSA 7 (TOS-E).

Target Orbit TCA Probability of collision Miss distance Type
THORAD DELTA 1 DEB SSO 2025-02-28 03:13:46 0.000138653 318.0 (m) DEBRIS
COSMOS 2251 DEB LEO 2024-05-26 14:16:13 0.0001033197 508.0 (m) DEBRIS

Associated space launch

The ESSA series was the second generation of US meterological satellites after the TIROS (Television & Infra-Red Observation Satellite) series. They were also called OT (Operational TIROS), TOS (TIROS Operational Satellite).

ESSA 7 (TOS-E) was lifted into orbit during the mission ‘Thor Delta N | ESSA 7’, on board a Thor Delta N space rocket.

The launch took place on Aug. 16, 1968, 11:24 a.m. from Space Launch Complex 2E.

For more information about the launch, click the button.

Launch to space Thor Delta N | ESSA 7
Thor Delta N | ESSA 7

Agency: N/A

Status: Launch Successful

Launch date: Aug. 16, 1968, 11:24 a.m. UTC

Rocket: Thor Delta N

Launch pad: Space Launch Complex 2E

Location: Vandenberg SFB, CA, USA

...

Latest news about this satellite

There are no fresh news available about this satellite. Check back as we update our databases every day.


Newsletter sign-up

Weekly statistics, charts and insights to help you stay on top of the space industry.